Newport, Rhode Island, United States (02840)
Lat: 41.49N, Lon: 71.31W
Wx Zone: RIZ007
Local Info
Past Weather Observations for Today

NOTE: This archive is for the closest National Weather Service station to Newport. Information may differ from the station used for current weather conditions.

Click here for Long-term Archive

Time Weather Temperature Dewpoint Humidity Pressure Winds Precip Visibility
18:03
Overcast
Light Rain
55°F / 13°C 54°F / 12°C 94% 29.92 in
(1013 mb)
NNW 5.8 mph
(NNW 9 kph)
0.00 in
(0.00 mm)
10SM
17:53
Overcast
55°F / 13°C 54°F / 12°C 94% 29.92 in
(1013 mb)
NNW 8.1 mph
(NNW 13 kph)
- 10SM
16:53
Overcast
57°F / 14°C 54°F / 12°C 88% 29.92 in
(1013 mb)
NNW 6.9 mph
(NNW 11 kph)
- 10SM
15:53
Overcast
59°F / 15°C 54°F / 12°C 82% 29.89 in
(1012 mb)
N 9.2 mph
(N 15 kph)
- 10SM
14:53
Overcast
59°F / 15°C 54°F / 12°C 82% 29.89 in
(1012 mb)
N 10.4 mph
(N 17 kph)
- 10SM
14:31
Overcast
57°F / 14°C 54°F / 12°C 88% 29.89 in
(1012 mb)
NNW 9.2 mph
(NNW 15 kph)
- 10SM
13:53
Overcast
57°F / 14°C 54°F / 12°C 88% 29.89 in
(1012 mb)
N 10.4 mph
(N 17 kph)
- 10SM
12:53
Overcast
57°F / 14°C 54°F / 12°C 88% 29.89 in
(1012 mb)
N 8.1 mph
(N 13 kph)
- 10SM
11:53
Overcast
Fog And Mist
57°F / 14°C 54°F / 12°C 88% 29.89 in
(1012 mb)
NE 11.5 mph
(NE 19 kph)
- 6SM
10:53
Overcast
57°F / 14°C 54°F / 12°C 88% 29.89 in
(1012 mb)
NE 10.4 mph
(NE 17 kph)
- 9SM
10:29
Overcast
Fog And Mist
55°F / 13°C 54°F / 12°C 94% 29.89 in
(1012 mb)
NE 11.5 mph
(NE 19 kph)
- 3SM
10:22
Overcast
Fog And Mist
55°F / 13°C 55°F / 13°C 100% 29.89 in
(1012 mb)
NE 10.4 mph
(NE 17 kph)
- 2 1/2SM
09:53
Overcast
Fog And Mist
55°F / 13°C 54°F / 12°C 94% 29.89 in
(1012 mb)
NE 11.5 mph
(NE 19 kph)
- 1 1/2SM
09:32
Overcast
Fog And Mist
55°F / 13°C 54°F / 12°C 94% 29.89 in
(1012 mb)
NE 11.5 mph
(NE 19 kph)
- 2 1/2SM
08:53
Overcast
Fog And Mist
55°F / 13°C 52°F / 11°C 88% 29.86 in
(1011 mb)
NNE 11.5 mph
(NNE 19 kph)
- 4SM
07:53
Overcast
55°F / 13°C 52°F / 11°C 88% 29.86 in
(1011 mb)
NNE 9.2 mph
(NNE 15 kph)
- 8SM
06:53
Overcast
Fog And Mist
54°F / 12°C 54°F / 12°C 100% 29.86 in
(1011 mb)
NNE 10.4 mph
(NNE 17 kph)
- 5SM
05:53
Overcast
54°F / 12°C 52°F / 11°C 94% 29.86 in
(1011 mb)
NNE 15 mph
(NNE 24 kph)
- 10SM
04:53
Overcast
54°F / 12°C 52°F / 11°C 94% 29.86 in
(1011 mb)
NNE 12.7 mph
(NNE 20 kph)
- 10SM
04:50
Overcast
54°F / 12°C 52°F / 11°C 94% 29.86 in
(1011 mb)
NNE 10.4 mph
(NNE 17 kph)
- 10SM
04:14
Overcast
54°F / 12°C 52°F / 11°C 94% 29.86 in
(1011 mb)
NE 12.7 mph
(NE 20 kph)
- 10SM
04:09
Overcast
54°F / 12°C 52°F / 11°C 94% 29.86 in
(1011 mb)
NE 12.7 mph
(NE 20 kph)
- 10SM
04:02
Overcast
55°F / 13°C 52°F / 11°C 88% 29.86 in
(1011 mb)
NE 15 mph
(NE 24 kph)
- 10SM
03:53
Overcast
55°F / 13°C 54°F / 12°C 94% 29.86 in
(1011 mb)
NE 12.7 mph
(NE 20 kph)
0.07 in
(1.78 mm)
10SM
03:49
Overcast
55°F / 13°C 52°F / 11°C 88% 29.86 in
(1011 mb)
NE 11.5 mph
(NE 19 kph)
0.07 in
(1.78 mm)
10SM
03:38
Overcast
55°F / 13°C 54°F / 12°C 94% 29.83 in
(1010 mb)
NE 13.8 mph
(NE 22 kph)
0.07 in
(1.78 mm)
10SM
03:24
Overcast
Light Rain
55°F / 13°C 54°F / 12°C 94% 29.83 in
(1010 mb)
NE 15 mph
(NE 24 kph)
0.07 in
(1.78 mm)
6SM
03:13
Overcast
Heavy Rain
55°F / 13°C 54°F / 12°C 94% 29.86 in
(1011 mb)
NE 11.5 mph
(NE 19 kph)
0.07 in
(1.78 mm)
2 1/2SM
02:53
Overcast
55°F / 13°C 54°F / 12°C 94% 29.86 in
(1011 mb)
NE 9.2 mph
(NE 15 kph)
0.00 in
(0.00 mm)
10SM
02:29
Overcast
55°F / 13°C 54°F / 12°C 94% 29.86 in
(1011 mb)
NE 10.4 mph
(NE 17 kph)
0.00 in
(0.00 mm)
10SM
01:53
Overcast
57°F / 14°C 54°F / 12°C 88% 29.86 in
(1011 mb)
NE 8.1 mph
(NE 13 kph)
0.01 in
(0.25 mm)
10SM
00:53
Overcast
Light Rain
59°F / 15°C 54°F / 12°C 82% 29.89 in
(1012 mb)
NE 4.6 mph
(NE 7 kph)
0.01 in
(0.25 mm)
10SM
Time Weather Temperature Dewpoint Humidity Pressure Winds Precip Visibility


Weather for websites

WeatherForYou.com, LLC is not responsible for any damages or problems caused by this service. Current weather conditions are obtained from the closest station including government and personal stations which may have varying degrees of accuracy. Weather forecasts are derived from the NOAA NDFD. Like all things, this site belongs to Jesus Christ... He just trusts us to maintain it. If you have any questions or comments email webmaster@weatherforyou.com

Copyright © 2016, WeatherForYou.com LLC. All rights reserved.